Location: ???? ?????????
(31.1304°N, 31.7111°E)
Time: 18:18:56
(UTC+00:00)

Vanguard 1 - All Passes

Search period start: 04 March 2021 00:00
Search period end: 14 March 2021 00:00
Orbit: 649 x 3834 km, 34.2° (Epoch: 03 March)

Date Brightness Start Highest point End Pass type
(mag) Time Alt. Az. Time Alt. Az. Time Alt. Az.
04 Mar - 00:04:31 10° SW 00:10:36 56° SSE 00:15:01 10° E night (unlit)
04 Mar - 02:26:09 10° W 02:30:38 60° N 02:35:19 10° ENE visible
04 Mar - 04:46:15 10° WNW 04:50:55 89° SSW 04:57:57 10° ESE daylight
04 Mar - 07:06:05 10° W 07:11:42 33° SSW 07:20:50 10° SE daylight
04 Mar - 09:32:53 10° SW 09:34:25 10° SSW 09:36:05 10° SSW daylight
04 Mar - 22:04:13 10° SSW 22:10:58 24° SSE 22:15:35 10° ESE night (unlit)
05 Mar - 00:25:31 10° WSW 00:31:29 79° SSE 00:35:55 10° ENE visible
05 Mar - 02:47:13 10° WNW 02:51:37 59° N 02:56:27 10° E visible
05 Mar - 05:07:06 10° WNW 05:11:50 69° SSW 05:19:08 10° ESE daylight
05 Mar - 07:27:33 10° WSW 07:32:52 24° SSW 07:40:52 10° SSE daylight
05 Mar - 20:08:33 10° SSE 20:10:01 10° SSE 20:11:23 10° SE night (unlit)
05 Mar - 22:24:24 10° SW 22:32:02 35° SSE 22:36:57 10° E night (unlit)
06 Mar - 00:46:39 10° WSW 00:52:23 81° NNW 00:56:47 10° ENE visible
06 Mar - 03:08:13 10° WNW 03:12:35 64° N 03:17:38 10° E visible
06 Mar - 05:28:01 10° W 05:32:45 50° SSW 05:40:06 10° SE daylight
06 Mar - 07:49:39 10° WSW 07:54:07 17° SSW 08:00:06 10° S daylight
06 Mar - 20:24:58 10° S 20:31:24 17° SSE 20:36:09 10° ESE visible
06 Mar - 22:45:01 10° SW 22:53:03 48° SSE 22:58:02 10° E night (unlit)
07 Mar - 01:07:53 10° W 01:13:19 67° N 01:17:41 10° ENE visible
07 Mar - 03:29:09 10° WNW 03:33:32 76° NNE 03:38:48 10° E visible
07 Mar - 05:49:05 10° W 05:53:43 36° SSW 06:00:46 10° SE daylight
07 Mar - 08:14:10 10° SW 08:15:27 10° SSW 08:16:48 10° SSW daylight
07 Mar - 20:44:05 10° SSW 20:52:41 24° SSE 20:58:22 10° ESE night (unlit)
07 Mar - 23:05:58 10° WSW 23:14:00 65° SSE 23:18:57 10° ENE night (unlit)
08 Mar - 01:29:07 10° W 01:34:17 60° N 01:38:38 10° ENE visible
08 Mar - 03:50:03 10° WNW 03:54:26 84° SSW 03:59:56 10° ESE daylight
08 Mar - 06:10:23 10° W 06:14:45 25° SSW 06:21:00 10° SSE daylight
08 Mar - 18:49:36 10° SSE 18:50:51 10° SSE 18:52:01 10° SE visible
08 Mar - 21:04:01 10° SSW 21:13:54 33° SSE 21:19:55 10° E night (unlit)
08 Mar - 23:27:09 10° WSW 23:34:56 84° SSE 23:39:48 10° ENE night (unlit)
09 Mar - 01:50:18 10° WNW 01:55:17 59° N 01:59:39 10° E visible
09 Mar - 04:10:58 10° W 04:15:19 61° SSW 04:20:56 10° ESE daylight
09 Mar - 06:32:13 10° WSW 06:35:51 17° SSW 06:40:34 10° S daylight
09 Mar - 19:04:35 10° S 19:12:23 16° SSE 19:18:13 10° ESE visible
09 Mar - 21:24:29 10° SW 21:35:03 44° SSE 21:41:06 10° E night (unlit)
09 Mar - 23:48:30 10° W 23:55:53 79° NNW 00:00:38 10° ENE night (unlit)
10 Mar - 02:11:25 10° WNW 02:16:15 65° N 02:20:41 10° E visible
10 Mar - 04:31:58 10° W 04:36:11 41° SSW 04:41:41 10° SE daylight
10 Mar - 06:56:18 10° SSW 06:57:01 10° SSW 06:57:46 10° SSW daylight
10 Mar - 19:23:13 10° SSW 19:33:48 23° SSE 19:40:51 10° ESE visible
10 Mar - 21:45:21 10° SW 21:56:06 58° SSE 22:02:07 10° E night (unlit)
11 Mar - 00:09:55 10° W 00:16:52 68° N 00:21:29 10° ENE visible
11 Mar - 02:32:27 10° WNW 02:37:12 79° NNE 02:41:44 10° E visible
11 Mar - 04:53:11 10° W 04:57:04 27° SSW 05:02:05 10° SSE daylight
11 Mar - 19:42:50 10° SSW 19:55:09 31° SSE 20:02:40 10° E visible
11 Mar - 22:06:31 10° WSW 22:17:08 73° SSE 22:23:00 10° ENE night (unlit)
12 Mar - 00:31:20 10° W 00:37:51 63° N 00:42:23 10° ENE visible
12 Mar - 02:53:28 10° WNW 02:58:04 78° SSW 03:02:42 10° ESE visible
12 Mar - 05:14:47 10° WSW 05:18:00 18° SSW 05:21:56 10° SSE daylight
12 Mar - 17:44:08 10° S 17:52:40 15° SSE 17:59:22 10° ESE visible
12 Mar - 20:03:02 10° SW 20:16:25 41° SSE 20:24:02 10° E visible
12 Mar - 22:27:55 10° WSW 22:38:08 88° SSE 22:43:50 10° ENE night (unlit)
13 Mar - 00:52:41 10° W 00:58:52 63° N 01:03:19 10° E visible
13 Mar - 03:14:30 10° W 03:18:54 54° SSW 03:23:31 10° SE visible
13 Mar - 05:37:51 10° SW 05:38:59 11° SSW 05:40:13 10° SSW daylight
13 Mar - 18:02:02 10° S 18:14:13 22° SSE 18:22:44 10° ESE visible
13 Mar - 20:23:44 10° SW 20:37:37 53° SSE 20:45:09 10° E visible
13 Mar - 22:49:27 10° W 22:59:09 79° NNW 23:04:39 10° ENE night (unlit)
